EA4LT-13 Weather Reports


Display with metric or nautical units.
time (UTC)temp
F
wind
direction
speed
MPH
gust
MPH
rain 1hr
in
rain 24hr
in
rain mn
in
humidity
%
barometer
mb
20260901045019 65 292 2.0 3.0 0.00 0.00 0.00 66 1015.6
20260901043520 65 292 3.0 6.0 0.00 0.00 0.00 65 1015.4
20260901042019 65 315 3.0 4.0 0.00 0.00 0.00 66 1015.5
20260901040518 65 315 3.0 6.0 0.00 0.00 0.00 65 1015.5
20260901035019 65 292 4.0 6.0 0.00 0.00 0.00 67 1015.7
20260901033519 61 292 3.0 4.0 0.00 0.00 0.00 78 1015.7
20260901032017 62 292 3.0 4.0 0.00 0.00 0.00 75 1015.7
20260901030519 63 292 3.0 4.0 0.00 0.00 0.00 72 1015.6
20260901025017 62 292 3.0 6.0 0.00 0.00 0.00 78 1015.8
20260901023518 62 315 3.0 6.0 0.00 0.00 0.00 77 1015.8
20260901022019 62 315 3.0 6.0 0.00 0.00 0.00 78 1016.0
20260901020519 62 315 3.0 6.0 0.00 0.00 0.00 77 1016.0
20260901015017 64 315 2.0 6.0 0.00 0.00 0.00 72 1016.0
20260901013518 64 315 1.0 3.0 0.00 0.00 0.00 70 1016.0
20260901012017 67 292 3.0 4.0 0.00 0.00 0.00 62 1016.2
20260901010518 67 292 3.0 3.0 0.00 0.00 0.00 63 1016.4
20260901005018 65 292 3.0 4.0 0.00 0.00 0.00 69 1016.5
20260901003516 66 292 3.0 6.0 0.00 0.00 0.00 66 1016.6
20260901002017 65 315 3.0 6.0 0.00 0.00 0.00 68 1016.6
20260901000517 67 292 2.0 6.0 0.00 0.00 0.00 66 1016.5
20260831235018 66 315 2.0 6.0 0.00 0.00 0.00 68 1016.5
20260831233517 65 315 4.0 8.0 0.00 0.00 0.00 72 1016.8
20260831232017 65 315 3.0 6.0 0.00 0.00 0.00 71 1016.5
20260831230517 66 315 3.0 6.0 0.00 0.00 0.00 70 1016.6
20260831225017 66 315 3.0 6.0 0.00 0.00 0.00 68 1016.6
20260831223517 70 292 2.0 10.0 0.00 0.00 0.00 58 1016.5
20260831222016 69 315 4.0 6.0 0.00 0.00 0.00 61 1016.8
20260831220517 69 292 3.0 9.0 0.00 0.00 0.00 60 1016.5
20260831215017 71 292 4.0 10.0 0.00 0.00 0.00 56 1016.7
20260831213516 72 292 6.0 11.0 0.00 0.00 0.00 55 1016.6
20260831212016 72 315 7.0 13.0 0.00 0.00 0.00 55 1016.6
20260831210517 72 315 6.0 13.0 0.00 0.00 0.00 55 1016.3
20260831205016 72 315 6.0 11.0 0.00 0.00 0.00 54 1016.2
20260831203516 73 292 9.0 15.0 0.00 0.00 0.00 53 1016.3
20260831202017 74 338 6.0 11.0 0.00 0.00 0.00 51 1016.3
20260831200516 75 315 6.0 15.0 0.00 0.00 0.00 48 1016.0
20260831195017 76 292 6.0 13.0 0.00 0.00 0.00 46 1016.0
20260831193516 77 315 5.0 10.0 0.00 0.00 0.00 45 1015.7
20260831192015 78 292 7.0 13.0 0.00 0.00 0.00 44 1015.6
20260831190516 79 292 6.0 13.0 0.00 0.00 0.00 42 1015.6
20260831185016 80 292 7.0 13.0 0.00 0.00 0.00 40 1015.7
20260831183516 82 292 6.0 10.0 0.00 0.00 0.00 37 1015.5
20260831182015 84 315 6.0 8.0 0.00 0.00 0.00 32 1015.5
20260831180515 86 292 3.0 6.0 0.00 0.00 0.00 27 1015.4
20260831175016 86 292 4.0 6.0 0.00 0.00 0.00 27 1015.3
20260831173515 87 315 3.0 6.0 0.00 0.00 0.00 26 1015.6
20260831172015 87 292 4.0 6.0 0.00 0.00 0.00 26 1015.7
20260831170516 88 292 2.0 6.0 0.00 0.00 0.00 26 1015.7
20260831165016 88 292 0.0 3.0 0.00 0.00 0.00 27 1015.8
20260831163515 86 315 6.0 8.0 0.00 0.00 0.00 28 1015.5
20260831162015 87 292 4.0 9.0 0.00 0.00 0.00 27 1016.0
20260831160516 88 248 2.0 6.0 0.00 0.00 0.00 27 1015.9
20260831155015 88 180 0.0 8.0 0.00 0.00 0.00 28 1016.0
20260831153514 88 315 3.0 9.0 0.00 0.00 0.00 28 1015.9
20260831152014 88 90 3.0 8.0 0.00 0.00 0.00 28 1016.2
20260831150515 89 338 1.0 4.0 0.00 0.00 0.00 28 1016.4
20260831145014 86 292 0.0 9.0 0.00 0.00 0.00 28 1016.4
20260831143515 87 248 3.0 9.0 0.00 0.00 0.00 29 1016.6
20260831142014 88 292 1.0 4.0 0.00 0.00 0.00 28 1016.7
20260831140514 87 90 1.0 6.0 0.00 0.00 0.00 28 1016.9
20260831135014 84 292 1.0 8.0 0.00 0.00 0.00 30 1016.7
20260831133514 87 180 1.0 6.0 0.00 0.00 0.00 28 1016.8
20260831132015 85 112 3.0 9.0 0.00 0.00 0.00 27 1017.1
20260831130514 84 112 2.0 6.0 0.00 0.00 0.00 28 1017.0
20260831125014 83 338 3.0 6.0 0.00 0.00 0.00 28 1017.1
20260831123515 84 292 3.0 8.0 0.00 0.00 0.00 31 1017.4
20260831122014 81 292 4.0 8.0 0.00 0.00 0.00 33 1017.5
20260831120513 82 292 5.0 6.0 0.00 0.00 0.00 34 1017.6
20260831115014 81 315 4.0 6.0 0.00 0.00 0.00 34 1017.7
20260831113514 80 270 0.0 8.0 0.00 0.00 0.00 38 1017.6
20260831112014 80 315 1.0 9.0 0.00 0.00 0.00 42 1017.9
20260831110513 80 338 2.0 6.0 0.00 0.00 0.00 43 1017.9
20260831105013 78 315 2.0 9.0 0.00 0.00 0.00 46 1018.1
20260831103513 80 68 0.0 6.0 0.00 0.00 0.00 44 1018.1
20260831102014 77 315 3.0 9.0 0.00 0.00 0.00 48 1017.9
20260831100514 75 315 6.0 9.0 0.00 0.00 0.00 50 1018.1
20260831095013 75 315 3.0 6.0 0.00 0.00 0.00 51 1018.0
20260831093513 73 22 3.0 8.0 0.00 0.00 0.00 53 1017.9
20260831092014 72 292 4.0 10.0 0.00 0.00 0.00 53 1017.9
20260831090512 72 292 3.0 8.0 0.00 0.00 0.00 57 1017.9
20260831085013 71 292 3.0 9.0 0.00 0.00 0.00 58 1017.8
20260831083512 69 292 4.0 8.0 0.00 0.00 0.00 62 1017.7
20260831082014 68 338 4.0 8.0 0.00 0.00 0.00 62 1017.8
20260831080512 67 315 3.0 8.0 0.00 0.00 0.00 64 1017.5
20260831075013 66 315 3.0 8.0 0.00 0.00 0.00 66 1017.3
20260831073512 65 315 4.0 8.0 0.00 0.00 0.00 67 1017.4
20260831072013 64 315 4.0 6.0 0.00 0.00 0.00 69 1017.4
20260831070513 62 292 3.0 6.0 0.00 0.00 0.00 72 1017.3
20260831065012 62 315 4.0 6.0 0.00 0.00 0.00 71 1017.0
20260831063512 62 292 5.0 8.0 0.00 0.00 0.00 71 1017.1
20260831062012 61 292 6.0 9.0 0.00 0.00 0.00 71 1017.2
20260831060511 61 292 5.0 8.0 0.00 0.00 0.00 71 1017.3
20260831055013 61 315 5.0 9.0 0.00 0.00 0.00 70 1017.2
20260831053512 61 292 6.0 9.0 0.00 0.00 0.00 70 1017.0
20260831052012 61 292 6.0 11.0 0.00 0.00 0.00 69 1017.0
20260831050511 62 315 7.0 11.0 0.00 0.00 0.00 68 1017.1